Location: Howard City Library
(37.4684°N, 96.2639°W)
Time: 23:17:33
(UTC+00:00)

STARLINK-1071 - Pass Details

Date: 18 February 2020
Orbit: 549 x 550 km, 53.0° (Epoch: 05 April)

Event Time Altitude Azimuth Distance (km) Brightness Sun altitude
Exits shadow 10:23:07 15° 51° (NE) 1,527 6.4 -33.9°
Drops below altitude 10° 10:23:53 10° 50° (NE) 1,827 6.9 -33.8°
Enters shadow 11:24:26 -62° 234° (SW) 11,880 10.4 -21.8°
